Regional Weather Roundup
Issued by NWS Sioux Falls, SD

Home | Current Version | Previous Version | Graphics & Text | Print | Product List | Glossary Off
Versions: 1 2 3 4 5 6 7 8 9 10 11 12 13 14 15 16 17 18 19 20 21 22 23 24 25 26 27 28 29 30 31 32 33 34 35 36 37 38 39 40 41 42 43 44 45 46 47 48 49 50

000
ASUS43 KFSD 120902
RWRFSD

WEATHER ROUNDUP FOR SE SOUTH DAKOTA/SW MINNESOTA/NW IOWA
NATIONAL WEATHER SERVICE SIOUX FALLS SD
300 AM CST TUE DEC 12 2017

NOTE: "FAIR" INDICATES FEW OR NO CLOUDS BELOW 12,000 FEET WITH NO
SIGNIFICANT WEATHER AND OR OBSTRUCTIONS TO VISIBILITY.


SDZ038>040-050-052>070-121000-
SOUTHEAST SOUTH DAKOTA

CITY           SKY/WX    TMP DP  RH WIND       PRES   REMARKS
BROOKINGS      CLOUDY    12   9  87 CALM      30.29F
CHAMBERLAIN    FOG       20  20 100 CALM      30.31F VSB 1/2
HURON          CLOUDY    22  18  85 CALM      30.32F
MADISON        FAIR      10  10 100 NW7       30.28F WCI   0
MITCHELL       CLOUDY    19  16  88 W6        30.35S WCI  11
SIOUX FALLS    CLOUDY    14  11  87 NW6       30.30F WCI   5
WINNER         CLOUDY    36  30  79 W6        30.31F
YANKTON        CLOUDY    16  13  88 SW9       30.35F WCI   4
$$

MNZ071-072-080-081-089-090-097-098-121000-
SOUTHWEST MINNESOTA

CITY           SKY/WX    TMP DP  RH WIND       PRES   REMARKS
FAIRMONT       CLEAR     12   7  80 NW16      30.27S WCI  -5
JACKSON        CLEAR     12   9  85 MISG      30.26S
LUVERNE        CLOUDY    12   9  85 NW7       30.31F WCI   2
MARSHALL       CLOUDY     9   6  88 W5        30.31F WCI   1
MONTEVIDEO     CLOUDY     9   7  92 NW3       30.32S
PIPESTONE      CLOUDY    12   9  85 NW7       30.27F WCI   2
REDWOOD FALLS  CLEAR     11   4  73 NW10      30.30S WCI  -3
TRACY          CLEAR     13  10  90 NW8       30.29S WCI   2
WINDOM           N/A     12   0  57 NW13      30.26F WCI  -3
WORTHINGTON    CLEAR     12   9  87 NW10      30.28S WCI  -1
$$

IAZ001>003-012>014-020>022-031-032-NEZ013-014-SDZ071-121000-
NORTHWEST IOWA

CITY           SKY/WX    TMP DP  RH WIND       PRES   REMARKS
CHEROKEE       CLOUDY    14  12  90 NW5       30.32S WCI   7
DENISON        CLEAR     16  10  79 NW7       30.34S WCI   6
ESTHERVILLE    CLEAR     12   8  84 NW16      30.26F WCI  -5
LE MARS        CLOUDY    12  10  92 CALM      30.34S
ORANGE CITY    CLOUDY    16  14  93 NW5       30.30F WCI   9
SHELDON        CLOUDY    12   9  85 W8        30.29S WCI   1
SIOUX CITY     CLOUDY    14  11  87 NW7       30.36F WCI   4
SPENCER        CLEAR     13   9  84 NW9       30.28F WCI   1
STORM LAKE     CLOUDY    12   9  85 NW12      30.28S WCI  -2
$$

ABBREVIATIONS USED IN REMARKS
   TC - TEMPERATURE IN CELSIUS
  WCI - WIND CHILL INDEX
   HX - HEAT INDEX
  VSB - VISIBILITY





USA.gov is the U.S. government's official web portal to all federal, state and local government web resources and services.